TimeCST,TemperatureF,Dew PointF,Humidity,Sea Level PressureIn,VisibilityMPH,Wind Direction,Wind SpeedMPH,Gust SpeedMPH,PrecipitationIn,Events,Conditions,WindDirDegrees,DateUTC
12:54 AM,37.9,35.1,89,30.18,10.0,Calm,Calm,-,N/A,,Clear,0,2012-11-08 06:54:00
1:54 AM,37.0,34.0,89,30.19,10.0,Calm,Calm,-,N/A,,Clear,0,2012-11-08 07:54:00
2:54 AM,37.0,34.0,89,30.19,10.0,Calm,Calm,-,N/A,,Clear,0,2012-11-08 08:54:00
3:54 AM,36.0,33.1,89,30.20,10.0,Calm,Calm,-,N/A,,Clear,0,2012-11-08 09:54:00
4:54 AM,35.1,32.0,89,30.21,10.0,Calm,Calm,-,N/A,,Clear,0,2012-11-08 10:54:00
5:54 AM,34.0,32.0,92,30.23,10.0,Calm,Calm,-,N/A,,Clear,0,2012-11-08 11:54:00
6:54 AM,35.1,33.1,92,30.26,10.0,Calm,Calm,-,N/A,,Clear,0,2012-11-08 12:54:00
7:54 AM,43.0,37.9,82,30.27,10.0,Calm,Calm,-,N/A,,Clear,0,2012-11-08 13:54:00
8:54 AM,50.0,41.0,71,30.28,10.0,ENE,4.6,-,N/A,,Clear,70,2012-11-08 14:54:00
9:54 AM,55.0,36.0,49,30.28,10.0,Calm,Calm,-,N/A,,Clear,0,2012-11-08 15:54:00
10:54 AM,57.0,34.0,42,30.27,10.0,Calm,Calm,-,N/A,,Clear,0,2012-11-08 16:54:00
11:54 AM,59.0,32.0,36,30.24,10.0,Calm,Calm,-,N/A,,Clear,0,2012-11-08 17:54:00
12:54 PM,61.0,33.1,35,30.21,10.0,Calm,Calm,-,N/A,,Clear,0,2012-11-08 18:54:00
1:54 PM,63.0,34.0,34,30.19,10.0,Calm,Calm,-,N/A,,Clear,0,2012-11-08 19:54:00
2:54 PM,64.9,35.1,33,30.18,10.0,Calm,Calm,-,N/A,,Clear,0,2012-11-08 20:54:00
3:54 PM,63.0,37.9,40,30.18,10.0,NNE,3.5,-,N/A,,Clear,30,2012-11-08 21:54:00
4:54 PM,57.9,44.1,60,30.18,10.0,Calm,Calm,-,N/A,,Clear,0,2012-11-08 22:54:00
5:54 PM,51.1,43.0,74,30.19,10.0,Calm,Calm,-,N/A,,Clear,0,2012-11-08 23:54:00
6:54 PM,46.0,42.1,86,30.19,10.0,Calm,Calm,-,N/A,,Clear,0,2012-11-09 00:54:00
7:54 PM,46.0,42.1,86,30.20,10.0,Calm,Calm,-,N/A,,Clear,0,2012-11-09 01:54:00
8:54 PM,44.1,39.9,85,30.20,10.0,Calm,Calm,-,N/A,,Clear,0,2012-11-09 02:54:00
9:54 PM,44.1,39.9,85,30.19,10.0,Calm,Calm,-,N/A,,Clear,0,2012-11-09 03:54:00
10:54 PM,43.0,39.0,86,30.19,10.0,SSE,4.6,-,N/A,,Clear,150,2012-11-09 04:54:00
11:54 PM,43.0,37.9,82,30.19,10.0,SSE,6.9,-,N/A,,Clear,150,2012-11-09 05:54:00